Location: Radomski Observatory
(40.2854°N, 79.5145°W)
Time: 22:59:26
(UTC-04:00)

Daily predictions for brighter satellites

Satellite Brightness Start Highest point End
(mag) Time Altitude Azimuth Time Altitude Azimuth Time Altitude Azimuth
METEOR-M 4.3 20:17:00 10° SSE 20:22:21 87° WSW 20:27:45 10° NNW
Cosmos 2369 4.0 20:20:23 10° S 20:25:41 43° ESE 20:31:03 10° NE
Lacrosse 5 rocket 2.3 20:22:53 10° NNW 20:26:12 29° NE 20:29:24 10° E
Cosmos 1633 3.1 20:22:47 10° SSW 20:26:24 64° W 20:30:01 10° N
Cosmos 1777 Rocket 4.0 20:21:08 10° NNW 20:26:24 82° ENE 20:31:41 10° SSE
Cosmos 1315 Rocket 3.7 20:23:57 10° SSW 20:27:53 56° WNW 20:31:53 10° N
H-2A R/B 3.4 20:24:26 10° SE 20:28:02 38° ENE 20:31:42 10° N
Cosmos 1980 Rocket 4.0 20:29:40 10° ESE 20:30:26 10° E 20:31:11 10° E
Meteor 2-21 Rocket 4.5 20:26:48 10° S 20:33:00 80° E 20:39:12 10° N
Helios 1A 3.7 20:30:02 10° S 20:34:07 57° W 20:38:15 10° NNW
Meteor 1-23 Rocket 4.3 20:28:56 10° N 20:34:36 89° W 20:40:19 10° S
NOSS 3-4 (A) 3.9 20:29:35 10° NNW 20:36:39 78° NE 20:44:06 10° SE
NOSS 3-4 (C) 3.9 20:29:42 10° NNW 20:36:46 78° NE 20:44:14 10° SE
CZ-4 DEB 4.5 20:38:27 11° ESE 20:40:21 17° ENE 20:42:30 10° NNE
Cosmos 2208 Rocket 4.0 20:39:19 10° SSW 20:44:36 80° ESE 20:50:01 10° NNE
Meteor 2-15 4.4 20:39:24 10° N 20:45:30 83° E 20:51:34 10° S
CZ-2D R/B 3.2 20:42:45 10° SSE 20:46:36 73° ENE 20:50:29 10° N
H-2A R/B 3.9 20:46:30 11° E 20:48:15 14° ENE 20:50:19 10° NNE
Cosmos 1025 Rocket 4.4 20:44:11 10° NNW 20:48:19 43° W 20:52:24 10° SSW
Cosmos 1461 2.8 20:44:41 10° NNW 20:48:45 66° ENE 20:52:18 12° SE
OAO 2 Rocket 4.0 20:45:31 10° SW 20:50:09 39° SSE 20:54:03 14° ESE
Hubble Space Telescope 3.2 20:49:43 10° SSW 20:50:53 11° SSW 20:52:05 10° S
Meteor 2-15 Rocket 4.4 20:45:08 10° N 20:51:14 78° E 20:57:17 10° S
Cosmos 1892 Rocket 4.0 20:46:51 10° NNW 20:51:18 67° W 20:55:44 10° S
Cosmos 2123 Rocket 3.9 20:45:14 10° N 20:51:26 75° E 20:57:35 10° SSE
Cosmos 1626 Rocket 4.0 20:47:29 10° N 20:51:39 41° ENE 20:55:45 10° SSE
Cosmos 1939 Rocket 4.2 20:50:49 14° ESE 20:53:15 23° ENE 20:56:35 10° NNE
FENGYUN 3A 3.7 20:50:04 10° SSE 20:55:25 88° WSW 21:00:48 10° NNW
Cosmos 1455 Rocket 3.1 20:51:08 10° S 20:55:27 85° W 20:59:50 10° N
Cosmos 2227 Rocket 2.2 20:52:50 10° NNW 20:58:33 80° ENE 21:04:11 10° SSE
Cosmos 1656 3.9 20:54:26 10° S 20:59:47 46° ESE 21:05:05 10° NE
Cosmos 1570 Rocket 4.4 20:55:12 10° SSW 21:00:29 68° WNW 21:05:45 10° NNE
Cosmos 1602 Rocket 3.8 20:56:10 10° N 21:00:33 51° E 21:04:39 11° SSE
Envisat 3.9 20:57:13 15° ESE 21:00:35 31° ENE 21:04:59 10° N
CZ-4B DEB 4.3 20:59:07 10° S 21:02:12 39° W 21:05:19 10° NNW
Cosmos 1346 Rocket 3.2 21:00:11 10° NNW 21:04:06 65° W 21:08:03 10° S
Cosmos 1500 3.8 21:02:27 13° SSE 21:05:18 33° E 21:08:43 10° NNE
NOSS 7 (H) 4.3 21:03:32 10° SW 21:06:52 86° WNW 21:10:17 10° NNE
Iridium 4 Rocket 3.4 21:04:54 10° N 21:09:56 57° E 21:14:17 11° SSE
ALOS 2.9 21:05:47 10° S 21:10:22 56° W 21:14:59 10° NNW
Cosmos 2082 3.7 21:07:09 10° NNW 21:12:47 84° WSW 21:18:05 12° SSE
Cosmos 2084 4.1 21:09:03 10° NNW 21:12:51 38° NE 21:14:49 24° ESE
Cosmos 2297 Rocket 2.2 21:08:20 10° NNW 21:14:01 77° ENE 21:18:31 17° SSE
Cosmos 220 Rocket 3.8 21:14:01 10° NNW 21:18:15 73° ENE 21:20:50 23° SSE
Cosmos 1340 4.3 21:15:41 10° NNE 21:18:25 19° ENE 21:18:25 19° ENE
Cosmos 2150 Rocket 4.3 21:13:47 10° N 21:18:47 47° ENE 21:21:30 25° SE
Resurs 01 Rocket 4.3 21:16:35 10° SW 21:19:45 19° W 21:22:56 10° NW
Cosmos 1153 Rocket 4.4 21:13:35 10° S 21:19:46 75° E 21:25:55 10° N
RESURS DK-1 3.5 21:16:40 10° N 21:20:15 27° ENE 21:21:23 24° E
CZ-3C R/B 4.2 20:34:49 10° W 21:21:02 33° SSW 21:28:27 15° SSE
USA 186 3.2 21:22:24 10° SSW 21:25:21 34° W 21:28:07 10° NNW
YAOGAN 6 4.3 21:26:58 19° ENE 21:26:58 19° ENE 21:29:26 10° NNE
DELTA 2 R/B (1) 3.6 21:22:40 10° W 21:28:12 70° SSW 21:31:02 29° ESE
BREEZE-M DEB (TANK) 4.1 21:10:20 10° SW 21:28:25 74° SSE 21:32:42 15° ENE
Cosmos 1515 3.6 21:24:58 10° N 21:28:50 79° E 21:30:47 28° SSE
ERS-1 Rocket 2.9 21:27:56 20° SSE 21:31:28 78° ENE 21:36:30 10° N
Cosmos 1447 Rocket 4.5 21:25:07 10° N 21:31:28 88° E 21:37:42 11° S
Cosmos 1606 Rocket 4.3 21:34:01 32° E 21:34:01 32° E 21:37:57 10° NNE
Cosmos 1802 Rocket 4.3 21:29:34 17° SSE 21:34:16 48° E 21:40:25 10° NNE
Cosmos 1743 2.9 21:40:00 48° ESE 21:40:18 50° E 21:44:07 10° NNE
Cosmos 1898 Rocket 3.4 21:35:35 10° NNW 21:40:55 80° ENE 21:43:26 32° SSE
OTV 4 2.2 21:39:06 10° WSW 21:41:08 23° SW 21:41:08 23° SW
Cosmos 1763 Rocket 3.8 21:43:23 38° ESE 21:43:43 38° ESE 21:48:24 10° NE
Lacrosse 5 2.1 21:41:36 10° NW 21:46:36 56° NE 21:48:07 40° E
Cosmos 1066 Rocket 4.2 21:41:34 10° N 21:47:15 89° ENE 21:50:49 25° S
Tiangong 1 1.4 21:44:55 10° WNW 21:47:55 56° N 21:47:55 56° N
Cosmos 2016 Rocket 4.1 21:47:11 30° SSE 21:49:57 53° E 21:55:56 10° NNE
Cosmos 1697 Rocket 2.6 21:45:15 10° SSW 21:50:54 89° WNW 21:56:36 10° NNE
SPOT 5 3.0 21:50:57 44° SE 21:52:14 58° ENE 21:57:01 10° N
SL-16 R/B 4.2 22:00:59 13° ENE 22:00:59 13° ENE 22:01:54 10° NE
Cosmos 468 Rocket 4.1 21:52:37 10° SSW 21:57:44 73° WNW 22:02:52 10° NNE
Cosmos 1726 Rocket 3.9 21:58:23 46° ENE 21:58:23 46° ENE 22:02:05 10° NNE
Cosmos 2173 Rocket 4.0 21:56:18 11° S 22:02:32 88° W 22:08:55 10° N
USA 215 4.2 22:00:24 23° ENE 22:03:43 37° NNE 22:09:35 10° NW
Cosmos 841 Rocket 3.5 22:05:13 55° ESE 22:05:13 55° ESE 22:10:20 10° NNE
Lacrosse 5 rocket 2.5 22:02:09 10° WNW 22:05:22 29° SW 22:05:31 28° SW
Cosmos 1814 Rocket 4.2 22:01:43 10° SSW 22:07:03 72° WNW 22:12:22 10° NNE
Cosmos 1825 Rocket 3.5 22:07:37 10° N 22:12:04 79° W 22:12:29 70° SSW
ARGOS 3.4 22:12:12 49° E 22:12:30 49° ENE 22:17:40 10° N
Cosmos 1980 Rocket 2.1 22:07:48 10° SSW 22:13:28 86° ESE 22:19:12 10° NNE
Cosmos 2100 Rocket 4.3 22:08:23 10° SSW 22:14:38 65° W 22:20:51 10° N
Cosmos 1864 Rocket 4.4 22:17:11 55° ESE 22:17:47 58° E 22:23:45 10° NNE
Cosmos 2061 Rocket 4.3 22:12:26 10° SSW 22:18:38 67° W 22:24:53 10° N
Cosmos 967 Rocket 4.4 22:12:23 10° NNW 22:18:45 70° ENE 22:19:56 56° ESE
Cosmos 1953 Rocket 3.6 22:17:13 10° N 22:21:30 81° NW 22:21:30 81° NW
USA 245 4.4 22:20:59 58° SE 22:22:12 74° ENE 22:28:34 10° N
Tsikada Rocket 4.0 22:16:22 10° N 22:22:44 60° E 22:23:28 56° ESE
H-2A R/B 2.6 22:23:39 49° WSW 22:23:50 49° W 22:27:52 10° NNW
Meteor 1-15 Rocket 4.3 22:24:50 61° E 22:24:50 61° E 22:30:37 10° NNE
Terra 3.4 22:28:05 23° NE 22:28:05 23° NE 22:30:44 10° NNE
MetOp-B 4.2 22:28:30 61° SSW 22:29:21 74° WSW 22:34:43 10° NNW
Cosmos 1666 4.4 22:31:54 27° N 22:31:54 27° N 22:33:42 10° N
Milstar 3 Cent rocket 4.2 22:13:06 10° W 22:31:01 45° SSW 22:34:14 38° SSE
OAO 2 Rocket 4.4 22:29:43 10° WSW 22:33:01 35° SW 22:33:01 35° SW
ASTEX 1 3.8 22:33:39 10° N 22:38:35 60° W 22:39:19 53° WSW
Cosmos 1758 Rocket 4.2 22:36:18 10° NNW 22:39:54 52° NW 22:39:54 52° NW
Cosmos 2263 Rocket 3.4 22:37:37 10° N 22:41:51 29° NE 22:41:51 29° NE
Cosmos 2322 Rocket 3.3 22:48:05 32° NE 22:48:05 32° NE 22:51:07 10° NNE
Cosmos 1816 Rocket 4.4 22:40:26 10° N 22:46:49 73° E 22:46:49 73° E
H-2A R/B 2.8 22:48:51 40° NNE 22:48:51 40° NNE 22:52:18 10° N
Cosmos 1725 Rocket 4.0 22:47:52 65° SSW 22:48:48 79° W 22:55:05 10° N
Meteor 2-9 Rocket 4.4 22:56:00 63° W 22:56:11 63° W 23:01:35 10° N
RESURS DK-1 4.5 22:54:50 10° NW 22:57:19 22° W 22:57:19 22° W
Cosmos 2058 Rocket 4.5 23:03:28 37° NW 23:03:28 37° NW 23:07:00 10° N
CZ-4B R/B 4.2 22:58:34 10° N 23:02:03 46° NNW 23:02:03 46° NNW
SPOT 1/Viking Rocket 4.3 23:07:00 47° W 23:07:00 47° W 23:11:37 10° NNW
Cosmos 2233 Rocket 4.1 23:15:54 70° NNW 23:15:54 70° NNW 23:21:28 10° N
Lacrosse 5 4.0 23:25:13 10° WNW 23:27:19 19° W 23:27:19 19° W
SL-16 R/B 3.3 23:42:47 41° NNW 23:42:47 41° NNW 23:46:52 10° NNE
USA 215 3.6 23:47:44 58° WNW 23:47:44 58° WNW 23:52:56 10° NW
